Time,TemperatureF,DewpointF,PressureIn,WindDirection,WindDirectionDegrees,WindSpeedMPH,WindSpeedGustMPH,Humidity,HourlyPrecipIn,Conditions,Clouds,dailyrainin,SoftwareType,DateUTC
2013-05-16 00:00:00,70.8,61.0,29.90,NNE,15,0.0,2.0,71,0.00,,,0.01,weatherlink.com 1.10,2013-05-16 04:00:00,
2013-05-16 00:15:00,69.6,61.0,29.90,NNE,15,0.0,0.0,74,0.00,,,0.01,weatherlink.com 1.10,2013-05-16 04:15:00,
2013-05-16 00:30:00,68.9,60.0,29.89,NNE,15,0.0,1.0,74,0.00,,,0.00,weatherlink.com 1.10,2013-05-16 04:30:00,
2013-05-16 00:45:00,68.9,60.0,29.89,East,90,0.0,2.0,74,0.00,,,0.00,weatherlink.com 1.10,2013-05-16 04:45:00,
2013-05-16 01:00:00,69.6,60.0,29.89,NE,36,0.0,4.0,71,0.00,,,0.00,weatherlink.com 1.10,2013-05-16 05:00:00,
2013-05-16 01:15:00,70.6,58.0,29.90,WSW,238,0.0,5.0,64,0.00,,,0.00,weatherlink.com 1.10,2013-05-16 05:15:00,
2013-05-16 01:30:00,70.3,56.0,29.89,North,355,0.0,1.0,61,0.00,,,0.00,weatherlink.com 1.10,2013-05-16 05:30:00,
2013-05-16 01:45:00,70.1,55.0,29.89,SW,223,1.0,2.0,59,0.00,,,0.00,weatherlink.com 1.10,2013-05-16 05:45:00,
2013-05-16 02:00:00,70.0,55.0,29.89,SSE,168,0.0,3.0,59,0.00,,,0.00,weatherlink.com 1.10,2013-05-16 06:00:00,
2013-05-16 02:16:00,69.4,55.0,29.88,SSW,211,0.0,1.0,61,0.00,,,0.00,weatherlink.com 1.10,2013-05-16 06:16:00,
2013-05-16 02:31:00,68.8,55.0,29.88,ESE,105,2.0,3.0,62,0.00,,,0.00,weatherlink.com 1.10,2013-05-16 06:31:00,
2013-05-16 02:46:00,68.2,55.0,29.88,NNE,15,1.0,2.0,63,0.00,,,0.00,weatherlink.com 1.10,2013-05-16 06:46:00,
2013-05-16 03:01:00,67.2,55.0,29.88,NNE,14,1.0,2.0,64,0.00,,,0.00,weatherlink.com 1.10,2013-05-16 07:01:00,
2013-05-16 03:16:00,66.9,54.0,29.88,North,5,1.0,2.0,64,0.00,,,0.00,weatherlink.com 1.10,2013-05-16 07:16:00,
2013-05-16 03:31:00,66.2,54.0,29.87,North,5,0.0,2.0,66,0.00,,,0.00,weatherlink.com 1.10,2013-05-16 07:31:00,
2013-05-16 03:46:00,65.4,55.0,29.87,North,5,0.0,2.0,68,0.00,,,0.00,weatherlink.com 1.10,2013-05-16 07:46:00,
2013-05-16 04:01:00,64.3,55.0,29.87,North,5,0.0,0.0,71,0.00,,,0.00,weatherlink.com 1.10,2013-05-16 08:01:00,
2013-05-16 04:16:00,63.4,55.0,29.87,North,5,0.0,1.0,75,0.00,,,0.00,weatherlink.com 1.10,2013-05-16 08:16:00,
2013-05-16 04:31:00,62.7,55.0,29.88,North,5,0.0,0.0,76,0.00,,,0.00,weatherlink.com 1.10,2013-05-16 08:31:00,
2013-05-16 04:46:00,62.0,54.0,29.88,North,5,0.0,0.0,75,0.00,,,0.00,weatherlink.com 1.10,2013-05-16 08:46:00,
2013-05-16 05:01:00,62.2,54.0,29.88,North,5,0.0,1.0,75,0.00,,,0.00,weatherlink.com 1.10,2013-05-16 09:01:00,
2013-05-16 05:16:00,61.9,54.0,29.89,North,5,0.0,1.0,76,0.00,,,0.00,weatherlink.com 1.10,2013-05-16 09:16:00,
2013-05-16 05:31:00,61.6,55.0,29.89,North,5,0.0,1.0,79,0.00,,,0.00,weatherlink.com 1.10,2013-05-16 09:31:00,
2013-05-16 05:46:00,61.2,54.0,29.89,North,5,1.0,1.0,78,0.00,,,0.00,weatherlink.com 1.10,2013-05-16 09:46:00,
2013-05-16 06:01:00,61.3,54.0,29.89,South,175,0.0,3.0,77,0.00,,,0.00,weatherlink.com 1.10,2013-05-16 10:01:00,
2013-05-16 06:16:00,61.5,54.0,29.89,South,175,0.0,2.0,77,0.00,,,0.00,weatherlink.com 1.10,2013-05-16 10:16:00,
2013-05-16 06:31:00,61.1,55.0,29.90,South,175,0.0,1.0,79,0.00,,,0.00,weatherlink.com 1.10,2013-05-16 10:31:00,
2013-05-16 06:46:00,60.6,54.0,29.90,South,175,0.0,0.0,80,0.00,,,0.00,weatherlink.com 1.10,2013-05-16 10:46:00,
2013-05-16 07:01:00,60.5,55.0,29.91,South,175,0.0,0.0,81,0.00,,,0.00,weatherlink.com 1.10,2013-05-16 11:01:00,
2013-05-16 07:16:00,61.1,56.0,29.91,South,175,0.0,2.0,82,0.00,,,0.00,weatherlink.com 1.10,2013-05-16 11:16:00,
2013-05-16 07:31:00,62.6,56.0,29.91,ENE,58,0.0,2.0,80,0.00,,,0.00,weatherlink.com 1.10,2013-05-16 11:31:00,
2013-05-16 07:46:00,64.8,56.0,29.92,NE,36,2.0,2.0,73,0.00,,,0.00,weatherlink.com 1.10,2013-05-16 11:46:00,
2013-05-16 08:01:00,67.2,57.0,29.92,NE,47,0.0,2.0,69,0.00,,,0.00,weatherlink.com 1.10,2013-05-16 12:01:00,
2013-05-16 08:16:00,70.1,58.0,29.93,SSE,155,0.0,3.0,65,0.00,,,0.00,weatherlink.com 1.10,2013-05-16 12:16:00,
2013-05-16 08:31:00,72.6,58.0,29.93,SSW,209,0.0,4.0,61,0.00,,,0.00,weatherlink.com 1.10,2013-05-16 12:31:00,
2013-05-16 08:46:00,74.8,60.0,29.93,South,174,2.0,3.0,60,0.00,,,0.00,weatherlink.com 1.10,2013-05-16 12:46:00,
2013-05-16 09:01:00,76.9,58.0,29.94,South,178,2.0,3.0,52,0.00,,,0.00,weatherlink.com 1.10,2013-05-16 13:01:00,
2013-05-16 09:16:00,77.4,58.0,29.94,NE,40,1.0,3.0,51,0.00,,,0.00,weatherlink.com 1.10,2013-05-16 13:16:00,
2013-05-16 09:32:00,78.0,59.0,29.94,SE,134,2.0,3.0,52,0.00,,,0.00,weatherlink.com 1.10,2013-05-16 13:32:00,
2013-05-16 09:47:00,79.3,60.0,29.93,WNW,301,0.0,3.0,51,0.00,,,0.00,weatherlink.com 1.10,2013-05-16 13:47:00,
2013-05-16 10:02:00,81.0,61.0,29.93,NW,309,0.0,6.0,50,0.00,,,0.00,weatherlink.com 1.10,2013-05-16 14:02:00,
2013-05-16 10:17:00,81.1,59.0,29.93,South,184,3.0,7.0,47,0.00,,,0.00,weatherlink.com 1.10,2013-05-16 14:17:00,
2013-05-16 10:32:00,81.2,60.0,29.93,SSE,165,2.0,6.0,48,0.00,,,0.00,weatherlink.com 1.10,2013-05-16 14:32:00,
2013-05-16 10:47:00,81.3,60.0,29.93,SW,221,0.0,7.0,48,0.00,,,0.00,weatherlink.com 1.10,2013-05-16 14:47:00,
2013-05-16 11:02:00,81.7,59.0,29.94,SW,229,0.0,7.0,46,0.00,,,0.00,weatherlink.com 1.10,2013-05-16 15:02:00,
2013-05-16 11:17:00,81.6,59.0,29.94,South,178,3.0,10.0,46,0.00,,,0.00,weatherlink.com 1.10,2013-05-16 15:17:00,
2013-05-16 11:32:00,82.3,59.0,29.94,West,275,1.0,7.0,46,0.00,,,0.00,weatherlink.com 1.10,2013-05-16 15:32:00,
2013-05-16 11:47:00,82.1,60.0,29.94,NW,309,2.0,5.0,47,0.00,,,0.00,weatherlink.com 1.10,2013-05-16 15:47:00,
2013-05-16 12:02:00,80.6,58.0,29.94,South,182,0.0,10.0,47,0.00,,,0.00,weatherlink.com 1.10,2013-05-16 16:02:00,
2013-05-16 12:17:00,79.9,58.0,29.94,North,5,3.0,6.0,47,0.00,,,0.00,weatherlink.com 1.10,2013-05-16 16:17:00,
2013-05-16 12:32:00,80.5,60.0,29.94,East,80,1.0,6.0,50,0.00,,,0.00,weatherlink.com 1.10,2013-05-16 16:32:00,
2013-05-16 12:47:00,80.9,60.0,29.94,SSW,208,0.0,8.0,49,0.00,,,0.00,weatherlink.com 1.10,2013-05-16 16:47:00,
2013-05-16 13:02:00,81.6,60.0,29.93,NNW,328,2.0,6.0,48,0.00,,,0.00,weatherlink.com 1.10,2013-05-16 17:02:00,
2013-05-16 13:17:00,82.3,60.0,29.93,SE,140,3.0,7.0,47,0.00,,,0.00,weatherlink.com 1.10,2013-05-16 17:17:00,
2013-05-16 13:32:00,82.7,59.0,29.93,SSW,207,2.0,8.0,45,0.00,,,0.00,weatherlink.com 1.10,2013-05-16 17:32:00,
2013-05-16 13:47:00,84.6,60.0,29.93,WNW,302,2.0,10.0,43,0.00,,,0.00,weatherlink.com 1.10,2013-05-16 17:47:00,
2013-05-16 14:02:00,86.6,60.0,29.92,SW,223,2.0,6.0,40,0.00,,,0.00,weatherlink.com 1.10,2013-05-16 18:02:00,
2013-05-16 14:17:00,86.8,58.0,29.92,NW,314,1.0,7.0,38,0.00,,,0.00,weatherlink.com 1.10,2013-05-16 18:17:00,
2013-05-16 14:32:00,87.4,61.0,29.91,WNW,295,0.0,5.0,41,0.00,,,0.00,weatherlink.com 1.10,2013-05-16 18:32:00,
2013-05-16 14:47:00,85.9,62.0,29.91,SE,146,1.0,9.0,44,0.00,,,0.00,weatherlink.com 1.10,2013-05-16 18:47:00,
2013-05-16 15:02:00,86.8,60.0,29.91,SW,228,3.0,5.0,41,0.00,,,0.00,weatherlink.com 1.10,2013-05-16 19:02:00,
2013-05-16 15:17:00,87.0,61.0,29.90,South,171,3.0,7.0,41,0.00,,,0.00,weatherlink.com 1.10,2013-05-16 19:17:00,
2013-05-16 15:32:00,87.3,61.0,29.90,NW,318,0.0,7.0,41,0.00,,,0.00,weatherlink.com 1.10,2013-05-16 19:32:00,
2013-05-16 15:47:00,86.8,61.0,29.89,WSW,252,0.0,9.0,42,0.00,,,0.00,weatherlink.com 1.10,2013-05-16 19:47:00,
2013-05-16 16:02:00,86.1,61.0,29.89,NNW,348,0.0,6.0,43,0.00,,,0.00,weatherlink.com 1.10,2013-05-16 20:02:00,
2013-05-16 16:17:00,84.1,62.0,29.89,SE,134,5.0,9.0,47,0.00,,,0.00,weatherlink.com 1.10,2013-05-16 20:17:00,
2013-05-16 16:32:00,82.8,62.0,29.88,East,86,1.0,7.0,49,0.00,,,0.00,weatherlink.com 1.10,2013-05-16 20:32:00,
2013-05-16 16:47:00,82.0,61.0,29.89,NW,313,4.0,8.0,49,0.00,,,0.00,weatherlink.com 1.10,2013-05-16 20:47:00,
2013-05-16 17:02:00,81.0,61.0,29.89,SW,236,2.0,7.0,50,0.00,,,0.00,weatherlink.com 1.10,2013-05-16 21:02:00,
2013-05-16 17:17:00,80.9,61.0,29.89,South,173,2.0,5.0,51,0.00,,,0.00,weatherlink.com 1.10,2013-05-16 21:17:00,
2013-05-16 17:32:00,80.5,60.0,29.89,ESE,107,1.0,4.0,50,0.00,,,0.00,weatherlink.com 1.10,2013-05-16 21:32:00,
2013-05-16 17:47:00,80.2,60.0,29.89,SSE,159,0.0,5.0,50,0.00,,,0.00,weatherlink.com 1.10,2013-05-16 21:47:00,
2013-05-16 18:02:00,79.7,60.0,29.89,South,170,1.0,4.0,52,0.00,,,0.00,weatherlink.com 1.10,2013-05-16 22:02:00,
2013-05-16 18:17:00,79.6,61.0,29.89,South,191,0.0,3.0,53,0.00,,,0.00,weatherlink.com 1.10,2013-05-16 22:17:00,
2013-05-16 18:32:00,79.7,62.0,29.89,SSW,197,3.0,6.0,54,0.00,,,0.00,weatherlink.com 1.10,2013-05-16 22:32:00,
2013-05-16 18:47:00,79.4,61.0,29.90,SE,125,1.0,6.0,53,0.00,,,0.00,weatherlink.com 1.10,2013-05-16 22:47:00,
2013-05-16 19:02:00,78.6,61.0,29.90,South,188,1.0,4.0,55,0.00,,,0.00,weatherlink.com 1.10,2013-05-16 23:02:00,
2013-05-16 19:17:00,77.8,61.0,29.90,South,180,1.0,5.0,56,0.00,,,0.00,weatherlink.com 1.10,2013-05-16 23:17:00,
2013-05-16 19:32:00,77.2,61.0,29.90,SSE,161,1.0,4.0,57,0.00,,,0.00,weatherlink.com 1.10,2013-05-16 23:32:00,
2013-05-16 19:47:00,76.6,60.0,29.90,South,178,0.0,3.0,57,0.00,,,0.00,weatherlink.com 1.10,2013-05-16 23:47:00,
2013-05-16 20:02:00,76.0,60.0,29.91,SSE,167,1.0,4.0,58,0.00,,,0.00,weatherlink.com 1.10,2013-05-17 00:02:00,
2013-05-16 20:17:00,75.5,60.0,29.91,SE,132,1.0,2.0,59,0.00,,,0.00,weatherlink.com 1.10,2013-05-17 00:17:00,
2013-05-16 20:32:00,75.1,60.0,29.92,NNE,30,0.0,1.0,60,0.00,,,0.00,weatherlink.com 1.10,2013-05-17 00:32:00,
2013-05-16 20:47:00,74.5,60.0,29.92,South,176,0.0,2.0,61,0.00,,,0.00,weatherlink.com 1.10,2013-05-17 00:47:00,
2013-05-16 21:02:00,74.0,60.0,29.92,South,176,0.0,2.0,61,0.00,,,0.00,weatherlink.com 1.10,2013-05-17 01:02:00,
2013-05-16 21:17:00,73.6,60.0,29.93,SSE,163,1.0,3.0,62,0.00,,,0.00,weatherlink.com 1.10,2013-05-17 01:17:00,
2013-05-16 21:32:00,73.0,60.0,29.94,South,175,1.0,1.0,63,0.00,,,0.00,weatherlink.com 1.10,2013-05-17 01:32:00,
2013-05-16 21:47:00,72.2,60.0,29.95,South,175,0.0,1.0,65,0.00,,,0.00,weatherlink.com 1.10,2013-05-17 01:47:00,
2013-05-16 22:02:00,71.3,60.0,29.95,South,175,0.0,0.0,67,0.00,,,0.00,weatherlink.com 1.10,2013-05-17 02:02:00,
2013-05-16 22:17:00,70.4,60.0,29.95,South,175,0.0,0.0,70,0.00,,,0.00,weatherlink.com 1.10,2013-05-17 02:17:00,
2013-05-16 22:32:00,69.9,60.0,29.95,South,175,0.0,0.0,72,0.00,,,0.00,weatherlink.com 1.10,2013-05-17 02:32:00,
2013-05-16 22:47:00,69.3,60.0,29.96,South,175,0.0,0.0,73,0.00,,,0.00,weatherlink.com 1.10,2013-05-17 02:47:00,
2013-05-16 23:02:00,68.6,60.0,29.96,South,175,0.0,0.0,73,0.00,,,0.00,weatherlink.com 1.10,2013-05-17 03:02:00,
2013-05-16 23:17:00,68.0,60.0,29.96,South,175,0.0,0.0,76,0.00,,,0.00,weatherlink.com 1.10,2013-05-17 03:17:00,
2013-05-16 23:32:00,67.4,60.0,29.96,South,175,0.0,0.0,77,0.00,,,0.00,weatherlink.com 1.10,2013-05-17 03:32:00,
2013-05-16 23:47:00,66.8,59.0,29.96,South,175,0.0,0.0,77,0.00,,,0.00,weatherlink.com 1.10,2013-05-17 03:47:00,